Home   Weather   Kiritimati   Past weeks

Flag for Kiribati Past Weather in Kiritimati, Christmas Island, Kiribati — Yesterday and Last 2 Weeks

Now
82 °F

Scattered clouds.


Feels Like: 86 °F
Forecast: 78 / 82 °F
Wind: 12 mph from South

Location: Christmas / Cassidy

Current Time: Dec 9, 2016 at 2:18:18 pm

Latest Report: Dec 9, 2016 at 1:00 pm


Visibility: N/A

Pressure: 29.77 "Hg

Humidity: 66%

Dew Point: 70 °F

Location of KiritimatiLocation

Past Weather in Kiritimati — Graph

°F

Kiritimati Temperature Yesterday

Maximum temperature yesterday: 84 °F (at 2:00 pm)
Minimum temperature yesterday: 77 °F (at 12:00 am)
Average temperature yesterday: 80 °F

High & Low Weather Summary for the Past Weeks

 TemperatureHumidityPressure
High88 °F (Dec 3, 12:00 pm)94% (Nov 25, 9:00 am)29.89 "Hg (Nov 25, 9:00 am)
Low72 °F (Dec 2, 6:00 am)55% (Dec 3, 2:00 pm)29.71 "Hg (Nov 24, 2:00 pm)
Average80 °F72%29.80 "Hg
* Reported Nov 24 1:00 pm — Dec 9 1:00 pm, Kiritimati, Weather by CustomWeather, © 2016

Note: Actual official high and low records may vary slightly from our data, if they occured in-between our weather recording intervals... More about our weather records

Advertising

Kiritimati Weather History for the Previous 24 Hours

Scroll right to see more
 ConditionsComfort  
Time TempWeatherWind HumidityBarometerVisibility
1:00 pm
Fri, Dec 9
82 °FScattered clouds.12 mph66%29.77 "HgN/A
12:00 pm84 °FScattered clouds.9 mph62%29.80 "HgN/A
11:00 am82 °FScattered clouds.7 mph66%29.83 "HgN/A
10:00 am81 °FScattered clouds.9 mph70%29.83 "HgN/A
9:00 am82 °FScattered clouds.14 mph66%29.83 "HgN/A
8:00 am81 °FScattered clouds.10 mph70%29.83 "HgN/A
6:00 am77 °FScattered clouds.9 mph79%29.80 "HgN/A
5:00 am77 °FScattered clouds.8 mph79%29.77 "HgN/A
4:00 am75 °FPassing clouds.6 mph83%29.74 "HgN/A
3:00 am75 °FPassing clouds.12 mph83%29.74 "HgN/A
2:00 am75 °FPassing clouds.7 mph83%29.74 "HgN/A
1:00 am75 °FPassing clouds.7 mph83%29.74 "HgN/A
12:00 am75 °FPassing clouds.5 mph83%29.74 "HgN/A
11:00 pm
Thu, Dec 8
77 °FPassing clouds.7 mph79%29.77 "HgN/A
10:00 pm79 °FPassing clouds.14 mph70%29.77 "HgN/A
9:00 pm79 °FPassing clouds.14 mph74%29.77 "HgN/A
8:00 pm79 °FPassing clouds.18 mph79%29.74 "HgN/A
7:00 pm79 °FPassing clouds.5 mph79%29.74 "HgN/A
5:00 pm81 °FPassing clouds.7 mph70%29.71 "HgN/A
4:00 pm82 °FScattered clouds.17 mph66%29.71 "HgN/A
3:00 pm84 °FScattered clouds.14 mph70%29.74 "HgN/A
2:00 pm84 °FScattered clouds.21 mph70%29.74 "HgN/A
Weather by CustomWeather, © 2016

See weather overviewHow to use our weather pages